Comanche, TX

12:21 PM CST on December 04, 2016 (GMT -0600)
Comanche

Weather History for KMKN - November, 2012

Change the Weather History Date:

Saturday, November 10, 2012

  Actual Average (KSEP) Record (KSEP)
Temperature  
Mean Temperature 71 °F -  
Max Temperature 80 °F 66 °F 85 °F (1975)
Min Temperature 62 °F 43 °F 25 °F (1960)
Cooling Degree Days 6    
Growing Degree Days 21 (Base 50)    
Moisture  
Dew Point 57 °F    
Average Humidity 65    
Maximum Humidity 88    
Minimum Humidity 37    
Precipitation  
Precipitation 0.00 in - - ()
Sea Level Pressure  
Sea Level Pressure 29.89 in    
Wind  
Wind Speed 15 mph (South)    
Max Wind Speed 26 mph    
Max Gust Speed 37 mph    
Visibility 10 miles    
Events      
Averages and records for this station are not official NWS values.
T = Trace of Precipitation, MM = Missing Value Source: NWS Daily Summary

Daily Weather History Graph

Daily Weather History Graph

Search for Another Location

Airport or City:

Trip Planner

Search our weather history database for the weather conditions in past years. The results will help you decide how hot, cold, wet, or windy it might be!

Date:

Astronomy

Nov. 10, 2012 Rise Set
Actual Time 6:59 AM CST 5:37 PM CST
Civil Twilight 6:33 AM CST 6:03 PM CST
Nautical Twilight 6:04 AM CST 6:32 PM CST
Astronomical Twilight 5:35 AM CST 7:01 PM CST
Moon 3:17 AM CST (11/10) 3:15 PM CST (11/10)
Length of Visible Light 11h 29m
Length of Day
10h 38m
Waning Crescent, 14% of the Moon is Illuminated
Nov 10
Waning Crescent
Nov 13
New
Nov 20
First Quarter
Nov 28
Full
Dec 6
Last Quarter

Hourly Weather History & Observations

Time (CST) Temp. Dew Point Humidity Pressure Visibility Wind Dir Wind Speed Gust Speed Precip Events Conditions
12:15 AM 68.0 °F 55.4 °F 64% 29.98 in 10.0 mi South 10.4 mph - N/A   Clear
12:35 AM 66.2 °F 55.4 °F 68% 29.97 in 10.0 mi SSE 11.5 mph 19.6 mph N/A   Clear
1:15 AM 64.4 °F 57.2 °F 77% 29.97 in 10.0 mi SSE 12.7 mph 17.3 mph N/A   Clear
1:35 AM 64.4 °F 59.0 °F 83% 29.95 in 10.0 mi South 15.0 mph 23.0 mph N/A   Clear
1:55 AM 64.4 °F 59.0 °F 83% 29.95 in 10.0 mi South 16.1 mph 24.2 mph N/A   Clear
2:15 AM 64.4 °F 59.0 °F 83% 29.95 in 10.0 mi South 17.3 mph 21.9 mph N/A   Scattered Clouds
2:35 AM 64.4 °F 59.0 °F 83% 29.95 in 10.0 mi South 13.8 mph 20.7 mph N/A   Scattered Clouds
2:55 AM 64.4 °F 59.0 °F 83% 29.95 in 10.0 mi South 15.0 mph 24.2 mph N/A   Mostly Cloudy
3:15 AM 64.4 °F 59.0 °F 83% 29.95 in 10.0 mi South 12.7 mph 20.7 mph N/A   Scattered Clouds
3:35 AM 64.4 °F 59.0 °F 83% 29.95 in 10.0 mi South 9.2 mph 18.4 mph N/A   Mostly Cloudy
3:55 AM 64.4 °F 59.0 °F 83% 29.94 in 10.0 mi South 11.5 mph 19.6 mph N/A   Overcast
4:15 AM 64.4 °F 59.0 °F 83% 29.94 in 10.0 mi South 12.7 mph 20.7 mph N/A   Overcast
4:35 AM 64.4 °F 59.0 °F 83% 29.94 in 10.0 mi South 13.8 mph 21.9 mph N/A   Overcast
4:55 AM 64.4 °F 59.0 °F 83% 29.95 in 10.0 mi South 11.5 mph 18.4 mph N/A   Mostly Cloudy
5:35 AM 62.6 °F 59.0 °F 88% 29.95 in 10.0 mi South 9.2 mph 16.1 mph N/A   Scattered Clouds
5:55 AM 62.6 °F 59.0 °F 88% 29.94 in 10.0 mi SSE 9.2 mph 16.1 mph N/A   Clear
6:15 AM 62.6 °F 59.0 °F 88% 29.94 in 10.0 mi SSE 10.4 mph - N/A   Clear
6:35 AM 62.6 °F 59.0 °F 88% 29.94 in 10.0 mi SSE 11.5 mph - N/A   Clear
6:55 AM 62.6 °F 59.0 °F 88% 29.95 in 10.0 mi SSE 10.4 mph - N/A   Clear
7:15 AM 62.6 °F 59.0 °F 88% 29.95 in 10.0 mi South 6.9 mph - N/A   Scattered Clouds
7:35 AM 62.6 °F 59.0 °F 88% 29.95 in 10.0 mi South 8.1 mph - N/A   Mostly Cloudy
7:55 AM 64.4 °F 59.0 °F 83% 29.96 in 10.0 mi South 9.2 mph - N/A   Overcast
8:15 AM 64.4 °F 59.0 °F 83% 29.97 in 10.0 mi South 11.5 mph - N/A   Overcast
8:35 AM 66.2 °F 59.0 °F 78% 29.97 in 10.0 mi South 13.8 mph 19.6 mph N/A   Overcast
9:15 AM 68.0 °F 59.0 °F 73% 29.97 in 10.0 mi South 13.8 mph 25.3 mph N/A   Overcast
9:35 AM 69.8 °F 59.0 °F 68% 29.97 in 10.0 mi South 17.3 mph 21.9 mph N/A   Overcast
9:55 AM 69.8 °F 59.0 °F 68% 29.97 in 10.0 mi South 17.3 mph 27.6 mph N/A   Overcast
10:15 AM 71.6 °F 59.0 °F 64% 29.97 in 10.0 mi South 19.6 mph 31.1 mph N/A   Overcast
10:35 AM 73.4 °F 59.0 °F 61% 29.95 in 10.0 mi South 23.0 mph 32.2 mph N/A   Overcast
10:55 AM 73.4 °F 59.0 °F 61% 29.95 in 10.0 mi SSW 21.9 mph 33.4 mph N/A   Mostly Cloudy
11:15 AM 73.4 °F 57.2 °F 57% 29.95 in 10.0 mi SSW 23.0 mph 33.4 mph N/A   Mostly Cloudy
11:35 AM 77.0 °F 59.0 °F 54% 29.93 in 10.0 mi South 25.3 mph 31.1 mph N/A   Mostly Cloudy
12:15 PM 77.0 °F 57.2 °F 50% 29.92 in 10.0 mi South 18.4 mph 32.2 mph N/A   Scattered Clouds
12:35 PM 77.0 °F 55.4 °F 47% 29.89 in 10.0 mi South 26.5 mph 32.2 mph N/A   Clear
12:55 PM 78.8 °F 55.4 °F 44% 29.88 in 10.0 mi South 26.5 mph 32.2 mph N/A   Clear
1:15 PM 78.8 °F 53.6 °F 42% 29.88 in 10.0 mi South 16.1 mph 32.2 mph N/A   Clear
1:35 PM 78.8 °F 53.6 °F 42% 29.87 in 10.0 mi South 21.9 mph 29.9 mph N/A   Clear
1:55 PM 78.8 °F 53.6 °F 42% 29.85 in 10.0 mi South 25.3 mph 29.9 mph N/A   Clear
2:15 PM 78.8 °F 51.8 °F 39% 29.84 in 10.0 mi South 26.5 mph 32.2 mph N/A   Clear
2:35 PM 78.8 °F 53.6 °F 42% 29.84 in 10.0 mi South 21.9 mph 28.8 mph N/A   Clear
2:55 PM 80.6 °F 51.8 °F 37% 29.82 in 10.0 mi South 19.6 mph 29.9 mph N/A   Clear
3:15 PM 80.6 °F 51.8 °F 37% 29.81 in 10.0 mi SSE 20.7 mph 33.4 mph N/A   Clear
3:35 PM 78.8 °F 53.6 °F 42% 29.81 in 10.0 mi South 25.3 mph 34.5 mph N/A   Clear
3:55 PM 77.0 °F 53.6 °F 44% 29.81 in 10.0 mi South 23.0 mph 36.8 mph N/A   Clear
4:15 PM 77.0 °F 53.6 °F 44% 29.81 in 10.0 mi South 26.5 mph 33.4 mph N/A   Clear
4:35 PM 77.0 °F 53.6 °F 44% 29.82 in 10.0 mi South 20.7 mph 35.7 mph N/A   Clear
4:55 PM 77.0 °F 53.6 °F 44% 29.81 in 10.0 mi South 24.2 mph 31.1 mph N/A   Clear
5:15 PM 75.2 °F 53.6 °F 47% 29.81 in 10.0 mi South 23.0 mph 34.5 mph N/A   Clear
5:35 PM 73.4 °F 53.6 °F 50% 29.82 in 10.0 mi South 18.4 mph 32.2 mph N/A   Clear
5:55 PM 73.4 °F 53.6 °F 50% 29.81 in 10.0 mi South 16.1 mph 24.2 mph N/A   Clear
6:15 PM 73.4 °F 53.6 °F 50% 29.82 in 10.0 mi South 17.3 mph 27.6 mph N/A   Clear
6:35 PM 73.4 °F 53.6 °F 50% 29.82 in 10.0 mi South 19.6 mph 26.5 mph N/A   Clear
6:55 PM 71.6 °F 53.6 °F 53% 29.83 in 10.0 mi SSE 13.8 mph 23.0 mph N/A   Clear
7:15 PM 71.6 °F 53.6 °F 53% 29.83 in 10.0 mi SSE 16.1 mph 20.7 mph N/A   Clear
7:35 PM 71.6 °F 53.6 °F 53% 29.83 in 10.0 mi SSE 16.1 mph 24.2 mph N/A   Clear
8:15 PM 71.6 °F 55.4 °F 57% 29.82 in 10.0 mi South 19.6 mph 24.2 mph N/A   Clear
8:35 PM 71.6 °F 55.4 °F 57% 29.83 in 10.0 mi SSE 13.8 mph 26.5 mph N/A   Clear
9:15 PM 69.8 °F 59.0 °F 68% 29.85 in 10.0 mi South 15.0 mph 25.3 mph N/A   Scattered Clouds
9:35 PM 69.8 °F 59.0 °F 68% 29.85 in 10.0 mi South 17.3 mph 25.3 mph N/A   Mostly Cloudy
9:55 PM 69.8 °F 59.0 °F 68% 29.85 in 10.0 mi South 18.4 mph 28.8 mph N/A   Mostly Cloudy
10:15 PM 69.8 °F 59.0 °F 68% 29.84 in 10.0 mi South 23.0 mph 29.9 mph N/A   Scattered Clouds
10:35 PM 69.8 °F 59.0 °F 68% 29.84 in 10.0 mi South 19.6 mph 31.1 mph N/A   Scattered Clouds
10:55 PM 69.8 °F 59.0 °F 68% 29.83 in 10.0 mi South 20.7 mph 31.1 mph N/A   Scattered Clouds
11:15 PM 69.8 °F 59.0 °F 68% 29.82 in 10.0 mi South 17.3 mph 27.6 mph N/A   Clear
11:35 PM 68.0 °F 60.8 °F 78% 29.82 in 10.0 mi South 19.6 mph 28.8 mph N/A   Clear
11:55 PM 69.8 °F 60.8 °F 73% 29.82 in 10.0 mi South 23.0 mph 28.8 mph N/A   Mostly Cloudy